Previsão horária em Alleppey

Hoje, 16 Junho, Quarta-feira

Tempo Temperatura Precipitação Vento Pressão Humidade
00:00 +27°C° 0.7 mm 6 m/s 756 mmHg 92%
01:00 +27°C° 0.7 mm 6 m/s 756 mmHg 91%
02:00 +27°C° 0.7 mm 6 m/s 755 mmHg 91%
03:00 +27°C° 0.7 mm 6 m/s 755 mmHg 91%
04:00 +27°C° 0.7 mm 6 m/s 755 mmHg 90%
05:00 +27°C° 0.7 mm 6 m/s 755 mmHg 89%
06:00 +28°C° 0.6 mm 6 m/s 756 mmHg 87%
07:00 +29°C° 0.6 mm 6 m/s 756 mmHg 85%
08:00 +29°C° 0.6 mm 6 m/s 757 mmHg 83%
09:00 +30°C° 0.6 mm 6 m/s 757 mmHg 81%
10:00 +30°C° 0.6 mm 7 m/s 757 mmHg 79%
11:00 +30°C° 0.6 mm 7 m/s 757 mmHg 77%
12:00 +32°C° 0.3 mm 6 m/s 757 mmHg 76%
13:00 +32°C° 0.3 mm 6 m/s 756 mmHg 74%
14:00 +32°C° 0.3 mm 6 m/s 756 mmHg 73%
15:00 +32°C° 0.2 mm 6 m/s 756 mmHg 75%
16:00 +30°C° 0.2 mm 6 m/s 756 mmHg 78%
17:00 +30°C° 0.2 mm 5 m/s 756 mmHg 80%
18:00 +29°C° 0.3 mm 5 m/s 756 mmHg 82%
19:00 +28°C° 0.3 mm 5 m/s 757 mmHg 85%
20:00 +28°C° 0.3 mm 4 m/s 757 mmHg 88%
21:00 +27°C° 0.6 mm 5 m/s 757 mmHg 88%
22:00 +27°C° 0.6 mm 5 m/s 757 mmHg 88%
23:00 +27°C° 0.6 mm 5 m/s 757 mmHg 89%

Amanhã, 17 Junho, Quinta-feira

Tempo Temperatura Precipitação Vento Pressão Humidade
00:00 +27°C° 0.6 mm 5 m/s 757 mmHg 89%
01:00 +27°C° 0.6 mm 5 m/s 756 mmHg 89%
02:00 +27°C° 0.6 mm 6 m/s 756 mmHg 88%
03:00 +27°C° 0.4 mm 6 m/s 756 mmHg 89%
04:00 +27°C° 0.4 mm 5 m/s 756 mmHg 89%
05:00 +27°C° 0.4 mm 5 m/s 756 mmHg 90%
06:00 +28°C° 0.4 mm 5 m/s 757 mmHg 87%
07:00 +29°C° 0.4 mm 5 m/s 757 mmHg 85%
08:00 +29°C° 0.4 mm 6 m/s 758 mmHg 82%
09:00 +30°C° 0.7 mm 5 m/s 758 mmHg 80%
10:00 +30°C° 0.7 mm 5 m/s 758 mmHg 77%
11:00 +32°C° 0.7 mm 5 m/s 757 mmHg 75%
12:00 +32°C° 0.8 mm 5 m/s 757 mmHg 74%
13:00 +32°C° 0.8 mm 6 m/s 757 mmHg 74%
14:00 +32°C° 0.8 mm 6 m/s 756 mmHg 74%
15:00 +30°C° 0.7 mm 6 m/s 756 mmHg 77%
16:00 +30°C° 0.7 mm 6 m/s 756 mmHg 80%
17:00 +29°C° 0.7 mm 6 m/s 756 mmHg 83%
18:00 +28°C° 0.7 mm 5 m/s 757 mmHg 85%
19:00 +28°C° 0.7 mm 5 m/s 757 mmHg 87%
20:00 +27°C° 0.7 mm 5 m/s 758 mmHg 89%
21:00 +27°C° 0.4 mm 4 m/s 758 mmHg 90%
22:00 +27°C° 0.4 mm 4 m/s 758 mmHg 91%
23:00 +27°C° 0.4 mm 4 m/s 758 mmHg 92%

Depois de amanhã, 18 Junho, Sexta-feira

Tempo Temperatura Precipitação Vento Pressão Humidade
00:00 +26°C° 0.4 mm 3 m/s 757 mmHg 92%
01:00 +26°C° 0.4 mm 3 m/s 757 mmHg 93%
02:00 +26°C° 0.4 mm 3 m/s 756 mmHg 93%
03:00 +26°C° 0.4 mm 3 m/s 757 mmHg 93%
04:00 +26°C° 0.4 mm 4 m/s 757 mmHg 93%
05:00 +26°C° 0.4 mm 4 m/s 757 mmHg 93%
06:00 +27°C° 0.3 mm 4 m/s 757 mmHg 89%
07:00 +28°C° 0.3 mm 4 m/s 758 mmHg 85%
08:00 +29°C° 0.3 mm 4 m/s 758 mmHg 81%
09:00 +30°C° 0.3 mm 4 m/s 758 mmHg 75%
10:00 +32°C° 0.3 mm 4 m/s 758 mmHg 69%
11:00 +33°C° 0.3 mm 4 m/s 758 mmHg 64%
12:00 +33°C° 0.1 mm 4 m/s 758 mmHg 63%
13:00 +33°C° 0.1 mm 4 m/s 757 mmHg 62%
14:00 +33°C° 0.1 mm 4 m/s 757 mmHg 61%
15:00 +32°C° 0.2 mm 4 m/s 757 mmHg 66%
16:00 +32°C° 0.2 mm 4 m/s 757 mmHg 71%
17:00 +30°C° 0.2 mm 3 m/s 757 mmHg 76%
18:00 +29°C° 0.2 mm 3 m/s 757 mmHg 80%
19:00 +28°C° 0.2 mm 3 m/s 758 mmHg 84%
20:00 +27°C° 0.2 mm 3 m/s 758 mmHg 89%
21:00 +27°C° 0.4 mm 3 m/s 758 mmHg 89%
22:00 +26°C° 0.4 mm 3 m/s 758 mmHg 90%
23:00 +26°C° 0.4 mm 2 m/s 758 mmHg 91%

19 Junho, Sábado

Tempo Temperatura Precipitação Vento Pressão Humidade
00:00 +26°C° 0.5 mm 3 m/s 758 mmHg 91%
01:00 +26°C° 0.5 mm 3 m/s 757 mmHg 92%
02:00 +26°C° 0.5 mm 3 m/s 757 mmHg 92%
03:00 +26°C° 0.5 mm 3 m/s 757 mmHg 92%
04:00 +26°C° 0.5 mm 3 m/s 757 mmHg 92%
05:00 +26°C° 0.5 mm 3 m/s 757 mmHg 92%
06:00 +26°C° 0.7 mm 3 m/s 758 mmHg 89%
07:00 +27°C° 0.7 mm 3 m/s 758 mmHg 87%
08:00 +28°C° 0.7 mm 3 m/s 759 mmHg 84%
09:00 +29°C° 0.2 mm 3 m/s 759 mmHg 77%
10:00 +31°C° 0.2 mm 3 m/s 759 mmHg 70%
11:00 +33°C° 0.2 mm 4 m/s 759 mmHg 62%
12:00 +33°C° 0 mm 4 m/s 758 mmHg 62%
13:00 +33°C° 0 mm 4 m/s 758 mmHg 61%
14:00 +33°C° 0 mm 4 m/s 757 mmHg 61%
15:00 +32°C° 0 mm 4 m/s 757 mmHg 65%
16:00 +32°C° 0 mm 4 m/s 757 mmHg 69%
17:00 +30°C° 0 mm 4 m/s 757 mmHg 73%
18:00 +29°C° 0 mm 3 m/s 758 mmHg 78%
19:00 +28°C° 0 mm 3 m/s 758 mmHg 82%
20:00 +27°C° 0 mm 3 m/s 758 mmHg 86%
21:00 +27°C° 0 mm 3 m/s 758 mmHg 87%
22:00 +27°C° 0 mm 3 m/s 758 mmHg 88%
23:00 +26°C° 0 mm 3 m/s 758 mmHg 89%

20 Junho, Domingo

Tempo Temperatura Precipitação Vento Pressão Humidade
00:00 +26°C° 0.1 mm 3 m/s 758 mmHg 89%
01:00 +26°C° 0.1 mm 3 m/s 757 mmHg 89%
02:00 +26°C° 0.1 mm 3 m/s 757 mmHg 89%
03:00 +26°C° 0.2 mm 3 m/s 757 mmHg 89%
04:00 +26°C° 0.2 mm 3 m/s 757 mmHg 89%
05:00 +26°C° 0.2 mm 3 m/s 757 mmHg 89%
06:00 +26°C° 0.3 mm 3 m/s 758 mmHg 86%
07:00 +27°C° 0.3 mm 3 m/s 758 mmHg 84%
08:00 +28°C° 0.3 mm 3 m/s 759 mmHg 82%
09:00 +29°C° 0.1 mm 3 m/s 759 mmHg 76%
10:00 +30°C° 0.1 mm 3 m/s 759 mmHg 70%
11:00 +31°C° 0.1 mm 3 m/s 759 mmHg 65%
12:00 +31°C° 0.1 mm 3 m/s 758 mmHg 65%
13:00 +31°C° 0.1 mm 3 m/s 758 mmHg 65%
14:00 +32°C° 0.1 mm 4 m/s 757 mmHg 65%
15:00 +32°C° 0.2 mm 4 m/s 757 mmHg 69%
16:00 +30°C° 0.2 mm 4 m/s 757 mmHg 73%
17:00 +29°C° 0.2 mm 4 m/s 757 mmHg 77%
18:00 +29°C° 0.2 mm 4 m/s 757 mmHg 80%
19:00 +28°C° 0.2 mm 4 m/s 758 mmHg 82%
20:00 +27°C° 0.2 mm 3 m/s 758 mmHg 85%
21:00 +27°C° 0.4 mm 3 m/s 758 mmHg 87%
22:00 +27°C° 0.4 mm 4 m/s 758 mmHg 88%
23:00 +27°C° 0.4 mm 4 m/s 758 mmHg 89%

21 Junho, Segunda-feira

Tempo Temperatura Precipitação Vento Pressão Humidade
00:00 +26°C° 0.2 mm 4 m/s 758 mmHg 89%
01:00 +26°C° 0.2 mm 4 m/s 757 mmHg 90%
02:00 +26°C° 0.2 mm 3 m/s 757 mmHg 90%
03:00 +26°C° 0.2 mm 3 m/s 757 mmHg 91%
04:00 +26°C° 0.2 mm 3 m/s 757 mmHg 92%
05:00 +25°C° 0.2 mm 3 m/s 757 mmHg 93%
06:00 +27°C° 0.3 mm 3 m/s 757 mmHg 88%
07:00 +28°C° 0.3 mm 3 m/s 758 mmHg 83%
08:00 +29°C° 0.3 mm 3 m/s 758 mmHg 78%
09:00 +30°C° 0.1 mm 4 m/s 758 mmHg 74%
10:00 +32°C° 0.1 mm 4 m/s 758 mmHg 69%
11:00 +33°C° 0.1 mm 4 m/s 758 mmHg 65%
12:00 +33°C° 0.1 mm 5 m/s 757 mmHg 65%
13:00 +33°C° 0.1 mm 5 m/s 757 mmHg 65%
14:00 +33°C° 0.1 mm 6 m/s 756 mmHg 65%
15:00 +32°C° 0.2 mm 5 m/s 756 mmHg 69%
16:00 +32°C° 0.2 mm 5 m/s 756 mmHg 72%
17:00 +30°C° 0.2 mm 5 m/s 756 mmHg 75%
18:00 +29°C° 0.3 mm 5 m/s 757 mmHg 79%
19:00 +28°C° 0.3 mm 5 m/s 757 mmHg 84%
20:00 +27°C° 0.3 mm 5 m/s 757 mmHg 88%
21:00 +27°C° 0.3 mm 4 m/s 757 mmHg 89%
22:00 +27°C° 0.3 mm 4 m/s 758 mmHg 90%
23:00 +27°C° 0.3 mm 4 m/s 758 mmHg 90%
Mostrar mais